目前日期文章:201204 (738)

瀏覽方式: 標題列表 簡短摘要
發表時間 文章標題 人氣 留言
2012-04-30 E-books K2 勁量型筆電散熱底座 (6) (0)
2012-04-30 KINYO 家用AC轉USB DC充電器(CU-6)+USB 公-母延長線1.5... (19) (0)
2012-04-30 IMAGER-37易眠枕 記憶頸枕 灰 (15) (0)
2012-04-30 Kolin歌林三段式溫控負離子吹風機 HD-R1002 (14) (0)
2012-04-30 Samsung Galaxy Tab P7500 P7300 OTG 複合式多功... (0) (0)
2012-04-30 聲寶手提鎳氫充電式吸塵器EC-SA02N (18) (0)
2012-04-30 SHARKOON SATA QuickPort MINI USB 3.0 硬碟讀... (1) (0)
2012-04-30 Uptech IHE301 3.5吋硬碟抽取匣 (8) (0)
2012-04-30 IDEAMOD CS240 _可攜式『迷你散熱棒』 (4) (0)
2012-04-30 HOT TOYS MMS151 蜘蛛人3 新綠惡魔 哈利 奧斯朋 (72) (0)
2012-04-30 可利亞忽必獵光控吸捕式滅蚊器GM-905 (0) (0)
2012-04-30 技嘉GZ-F3HEB機殼 (3) (0)
2012-04-30 杰強國際 J-POWER 熱銷機殼含350W電源組合(機殼八選一)附贈雙向USB (1) (0)
2012-04-30 視博通 小金剛(白) 專業電腦機殼 (5) (0)
2012-04-30 TROLAX D01 4大1小 競速中直立高效散熱電腦機殼 (12) (0)
2012-04-30 振華 白金冰蝶 750W 電源供應器 (6) (0)
2012-04-30 Netbook專用多功能散熱座-內建DVD燒錄光碟機 (1) (0)
2012-04-30 SeaSonic 380W 電源供應器-銅牌認證 (4) (0)
2012-04-30 HCG和成雙層T型排油煙機SE795S (1) (0)
2012-04-30 瑞士 AIR-O-SWISS空氣淨化器-黑色E2441A (1) (0)
2012-04-30 華碩平台【無限魔龍】FX四核GTS450獨顯電玩機 (0) (0)
2012-04-30 Thermalright HR-05 IFX/SLI 南/北橋散熱器 (9) (0)
2012-04-30 Leadtek WinFast GTS450 1GB D3 狼族電玩卡 (2) (0)
2012-04-30 安鈦克 Antec EA-550 80Plus白金牌認證電源供應器(550W) (14) (0)
2012-04-30 三洋窗型5-7坪R410A環保冷氣SA-L258/SA-R258 (6) (0)
2012-04-30 VORNADO 渦流空氣循環機Heavy Duty 293HD (10) (0)
2012-04-30 銳銨 RAIDON GR5630-SB3(USB 3.0) 3.5 磁碟陣列儲存... (5) (0)
2012-04-30 首利靜音冷者450W PFC (1) (0)
2012-04-30 安鈦克 Antec HCP-1200 電源供應器 (2) (0)
2012-04-30 華碩Z68平台【光武將軍】i5四核6770獨顯電玩機 (2) (0)
2012-04-30 華碩 F1A75-V PRO 主機板 (2) (0)
2012-04-30 豪山牌日本能率20L室外型熱水器(GQ-2037WH RF) (1) (0)
2012-04-30 CM 690二代-豪華版(CM 690 II Advanced) (7) (0)
2012-04-30 聲寶455L變頻三門電冰箱SR-K46DV(S3) (6) (0)
2012-04-30 華碩H61平台【星‧朱雀】i3雙核高速效能薄型電腦 (2) (0)
2012-04-30 華碩Z68平台【光武狂神】i5四核GTS450獨顯SSD電玩機 (0) (0)
2012-04-30 華碩Z68平台【雙刀元帥】i7四核GTX550Ti雙顯SSD電玩機 (2) (0)
2012-04-30 技嘉Z68平台【雙刀狂神】i7四核6770雙顯SSD電玩機 (2) (0)
2012-04-30 USB 大蘋果造型涼風扇 (3) (0)
2012-04-30 KINYO 大風扇筆電散熱墊NCP-006 (1) (0)
2012-04-30 《超值2入》攜帶型涼快雪糕風扇 (0) (0)
2012-04-30 《GO TRAVEL》超迷你可伸縮雙葉片風扇(紫) (2) (0)
2012-04-30 《GO TRAVEL》超迷你可伸縮雙葉風扇(白) (2) (0)
2012-04-30 Arctic Cooling S1 PLUS Turbo Module 專用風扇 (2) (0)
2012-04-30 《GO TRAVEL》Spray 涼爽水霧風扇 (3) (0)
2012-04-30 《mini Fan》貓咪表情造型涼夏隨身小風扇 (5) (0)
2012-04-30 EVERCOOL勁冷超頻家族 5公分長效靜音系統風扇(厚度10mm) (3) (0)
2012-04-30 Scythe KAZE JYUNI SLIM 薄12公分風扇(2000轉) (0) (0)
2012-04-30 CM XtraFlo 紅光PWM風扇 (2) (0)
2012-04-30 地球儀造型USB風扇/涼風扇(SDW-044C) (3) (0)